Flag for Poland Weather past 2 weeks in Tychy, Poland

Now
63 °F

Fog.


Feels Like: 63 °F
Forecast: 62 / 82 °F
Wind: No wind

Location: Katowice Airport

Current Time: Jul 28, 2014 at 6:26:28 AM

Latest Report: Jul 28, 2014 at 6:00 AM


Visibility: 3 mi

Pressure: 29.92 "Hg

Humidity: 94%

Dew point: 61 °F

Location of TychyLocation

Historic Weather in Tychy — Graph

°F

Tychy temperature yesterday

Maximum temperature yesterday: 86 °F (at 4:30 PM)
Minimum temperature yesterday: 61 °F (at 4:30 AM)
Average temperature yesterday: 74 °F

Past Weeks' High & Low Weather Summary

 TemperatureHumidityPressure
High88 °F (Jul 20, 3:00 PM)100% (Jul 15, 2:30 AM)30.15 "Hg (Jul 15, 2:30 AM)
Low55 °F (Jul 13, 5:00 AM)30% (Jul 14, 4:00 PM)29.80 "Hg (Jul 21, 11:30 AM)
Average71 °F70%29.98 "Hg
* Reported Jul 13 5:00 AM — Jul 28 5:30 AM, Tychy, Weather by CustomWeather, © 2014

Note: Actual official high and low records may vary slightly from our data, if they occured in-between our weather recording intervals... More about our weather records

Advertising

Tychy weather history for previous 24 hours

 ConditionsComfort  
Time TempWeatherWind HumidityBarometerVisibility
5:30 AM
Jul 28
64 °FClear.5 mph88%29.92 "Hg4 mi
4:30 AM63 °FFog.2 mph100%29.92 "Hg4 mi
4:00 AM63 °FClear.2 mph94%29.92 "Hg10 mi
3:30 AM63 °FClear.No wind94%29.95 "Hg10 mi
3:00 AM64 °FClear.2 mph88%29.95 "Hg10 mi
2:30 AM66 °FClear.1 mph88%29.95 "Hg10 mi
2:00 AM66 °FClear.5 mph88%29.95 "Hg10 mi
1:30 AM68 °FClear.3 mph83%29.95 "Hg10 mi
1:00 AM66 °FClear.3 mph88%29.95 "Hg10 mi
12:30 AM66 °FClear.6 mph88%29.95 "Hg10 mi
12:00 AM68 °FClear.3 mph83%29.95 "Hg10 mi
11:30 PM
Jul 27
72 °FClear.3 mph73%29.95 "Hg10 mi
11:00 PM72 °FPassing clouds.3 mph73%29.95 "HgN/A
10:30 PM73 °FPassing clouds.5 mph69%29.95 "HgN/A
10:00 PM73 °FClear.6 mph69%29.95 "Hg10 mi
9:30 PM73 °FSunny.7 mph69%29.95 "Hg10 mi
9:00 PM77 °FSunny.8 mph65%29.95 "Hg10 mi
8:30 PM79 °FSunny.6 mph61%29.92 "Hg10 mi
8:00 PM81 °FSunny.7 mph54%29.92 "Hg10 mi
7:30 PM82 °FSunny.6 mph48%29.92 "Hg10 mi
7:00 PM84 °FPassing clouds.9 mph45%29.92 "HgN/A
6:30 PM84 °FPassing clouds.10 mph45%29.92 "HgN/A
6:00 PM84 °FPassing clouds.12 mph43%29.92 "HgN/A
5:30 PM84 °FPassing clouds.10 mph43%29.92 "HgN/A
5:00 PM86 °FPassing clouds.10 mph43%29.92 "HgN/A
4:30 PM86 °FPassing clouds.8 mph40%29.92 "HgN/A
4:00 PM84 °FPassing clouds.8 mph43%29.92 "HgN/A
3:30 PM84 °FPassing clouds.7 mph43%29.92 "HgN/A
3:00 PM84 °FPassing clouds.7 mph45%29.95 "HgN/A
2:30 PM84 °FPassing clouds.6 mph43%29.95 "HgN/A
2:00 PM84 °FPassing clouds.5 mph51%29.95 "HgN/A
1:30 PM84 °FSunny.5 mph40%29.98 "Hg10 mi
1:00 PM84 °FPassing clouds.7 mph43%29.98 "HgN/A
12:30 PM82 °FPassing clouds.7 mph42%29.98 "HgN/A
12:00 PM82 °FSunny.5 mph42%29.98 "Hg10 mi
11:30 AM81 °FSunny.2 mph51%29.98 "Hg10 mi
11:00 AM81 °FPassing clouds.5 mph54%29.98 "HgN/A
10:30 AM81 °FSunny.5 mph54%29.98 "Hg10 mi
10:00 AM79 °FSunny.3 mph61%29.98 "Hg10 mi
9:30 AM77 °FSunny.2 mph65%29.98 "Hg10 mi
9:00 AM75 °FSunny.2 mph69%29.98 "Hg10 mi
8:30 AM72 °FPassing clouds.5 mph78%29.98 "HgN/A
8:00 AM70 °FPassing clouds.3 mph83%29.98 "HgN/A
7:30 AM68 °FSunny.2 mph88%29.98 "Hg10 mi
7:00 AM64 °FSunny.2 mph94%29.98 "Hg10 mi
6:30 AM64 °FSunny.2 mph94%29.98 "Hg10 mi
6:00 AM64 °FClear.2 mph94%29.98 "Hg10 mi
Weather by CustomWeather, © 2014

See weather overviewHow to use our weather pages